KP3T Weather Reports


Display with metric or nautical units.
time (UTC)temp
F
wind
direction
speed
MPH
gust
MPH
rain 1hr
in
rain 24hr
in
rain mn
in
humidity
%
barometer
mb
20260507174550 90 180 0.0 0.0 0.00 0.00 0.00 100
20260507174050 89 180 0.0 3.0 0.00 0.00 0.00 100
20260507173550 90 180 0.0 0.0 0.00 0.00 0.00 100
20260507173050 90 180 0.0 0.0 0.00 0.00 0.00 100
20260507172549 90 180 0.0 0.0 0.00 0.00 0.00 100
20260507172049 88 180 0.0 4.0 0.00 0.00 0.00 100
20260507171549 89 180 0.0 0.0 0.00 0.00 0.00 100
20260507171048 87 180 0.0 0.0 0.00 0.00 0.00 100
20260507170548 88 180 0.0 0.0 0.00 0.00 0.00 100
20260507170048 90 180 0.0 0.0 0.00 0.00 0.00 100
20260507165547 90 180 0.0 0.0 0.00 0.00 0.00 100
20260507165047 89 180 0.0 0.0 0.00 0.00 0.00 100
20260507164547 87 180 0.0 0.0 0.00 0.00 0.00 100
20260507164047 88 180 0.0 0.0 0.00 0.00 0.00 100
20260507163546 90 180 0.0 0.0 0.00 0.00 0.00 100
20260507163046 96 180 0.0 6.0 0.00 0.00 0.00 100
20260507162546 92 180 0.0 6.0 0.00 0.00 0.00 100
20260507162045 93 180 4.0 5.0 0.00 0.00 0.00 100
20260507161545 90 180 0.0 8.0 0.00 0.00 0.00 100
20260507161045 89 180 0.0 8.0 0.00 0.00 0.00 100
20260507160545 90 180 1.0 8.0 0.00 0.00 0.00 100
20260507160044 91 180 0.0 8.0 0.00 0.00 0.00 100
20260507155544 91 180 0.0 7.0 0.00 0.00 0.00 100
20260507155044 90 180 4.0 7.0 0.00 0.00 0.00 100
20260507154543 89 180 0.0 3.0 0.00 0.00 0.00 100
20260507154043 90 180 0.0 0.0 0.00 0.00 0.00 100
20260507153543 92 180 0.0 0.0 0.00 0.00 0.00 100
20260507153042 96 180 0.0 0.0 0.00 0.00 0.00 100
20260507152542 98 180 0.0 3.0 0.00 0.00 0.00 100
20260507152042 98 180 2.0 5.0 0.00 0.00 0.00 100
20260507151542 99 180 0.0 0.0 0.00 0.00 0.00 100
20260507151041 97 180 0.0 4.0 0.00 0.00 0.00 100
20260507150541 93 180 0.0 7.0 0.00 0.00 0.00 100
20260507150041 97 180 2.0 5.0 0.00 0.00 0.00 100
20260507145540 99 180 0.0 3.0 0.00 0.00 0.00 100
20260507145040 96 180 0.0 3.0 0.00 0.00 0.00 100
20260507144540 92 180 0.0 7.0 0.00 0.00 0.00 100
20260507144039 102 180 0.0 4.0 0.00 0.00 0.00 100
20260507143539 101 180 0.0 0.0 0.00 0.00 0.00 100
20260507143039 101 180 0.0 0.0 0.00 0.00 0.00 100
20260507142539 98 180 0.0 0.0 0.00 0.00 0.00 100
20260507142038 101 180 0.0 0.0 0.00 0.00 0.00 100
20260507141538 93 180 0.0 0.0 0.00 0.00 0.00 100
20260507141038 91 180 0.0 0.0 0.00 0.00 0.00 100
20260507140537 96 180 0.0 4.0 0.00 0.00 0.00 100
20260507140037 94 180 0.0 0.0 0.00 0.00 0.00 100
20260507135537 89 180 0.0 0.0 0.00 0.00 0.00 100
20260507135037 92 180 0.0 2.0 0.00 0.00 0.00 100
20260507134536 99 180 0.0 0.0 0.00 0.00 0.00 100
20260507134036 100 180 0.0 0.0 0.00 0.00 0.00 100
20260507133536 94 180 0.0 0.0 0.00 0.00 0.00 100
20260507133035 95 180 0.0 0.0 0.00 0.00 0.00 100
20260507132535 93 180 0.0 0.0 0.00 0.00 0.00 100
20260507132035 89 180 0.0 0.0 0.00 0.00 0.00 100
20260507131534 93 180 0.0 2.0 0.00 0.00 0.00 100
20260507131035 96 180 0.0 0.0 0.00 0.00 0.00 100
20260507130534 95 180 0.0 0.0 0.00 0.00 0.00 100
20260507130034 94 180 0.0 0.0 0.00 0.00 0.00 100
20260507125533 94 180 0.0 0.0 0.00 0.00 0.00 100
20260507125033 95 180 0.0 0.0 0.00 0.00 0.00 100
20260507124533 92 180 0.0 0.0 0.00 0.00 0.00 100
20260507124032 90 180 0.0 0.0 0.00 0.00 0.00 100
20260507123532 91 180 0.0 0.0 0.00 0.00 0.00 100
20260507123032 89 180 0.0 0.0 0.00 0.00 0.00 100
20260507122532 87 180 0.0 0.0 0.00 0.00 0.00 100
20260507122031 87 180 0.0 0.0 0.00 0.00 0.00 100
20260507121531 89 180 0.0 0.0 0.00 0.00 0.00 100
20260507121031 87 180 0.0 0.0 0.00 0.00 0.00 100
20260507120530 91 180 0.0 0.0 0.00 0.00 0.00 100
20260507120030 87 180 0.0 0.0 0.00 0.00 0.00 100
20260507115530 88 180 0.0 0.0 0.00 0.00 0.00 100
20260507115029 83 180 0.0 0.0 0.00 0.00 0.00 100
20260507114529 83 180 0.0 0.0 0.00 0.00 0.00 100
20260507114029 87 180 0.0 0.0 0.00 0.00 0.00 100
20260507113529 83 180 0.0 0.0 0.00 0.00 0.00 100
20260507113028 84 180 0.0 0.0 0.00 0.00 0.00 100
20260507112528 83 180 0.0 0.0 0.00 0.00 0.00 100
20260507112028 82 180 0.0 0.0 0.00 0.00 0.00 100
20260507111527 78 180 0.0 0.0 0.00 0.00 0.00 100
20260507111027 78 180 0.0 0.0 0.00 0.00 0.00 100
20260507110527 77 180 0.0 0.0 0.00 0.00 0.00 100
20260507110027 76 180 0.0 0.0 0.00 0.00 0.00 100
20260507105526 75 180 0.0 0.0 0.00 0.00 0.00 100
20260507105026 75 180 0.0 3.0 0.00 0.00 0.00 100
20260507104526 75 180 0.0 0.0 0.00 0.00 0.00 100
20260507104025 74 180 0.0 0.0 0.00 0.00 0.00 100
20260507103525 74 180 0.0 0.0 0.00 0.00 0.00 100
20260507103025 73 180 0.0 0.0 0.00 0.00 0.00 100
20260507102525 73 180 0.0 0.0 0.00 0.00 0.00 100
20260507102024 73 180 0.0 0.0 0.00 0.00 0.00 100
20260507101524 73 180 0.0 0.0 0.00 0.00 0.00 100
20260507101024 73 180 0.0 0.0 0.00 0.00 0.00 100
20260507100523 72 180 0.0 0.0 0.00 0.00 0.00 100
20260507100023 72 180 0.0 0.0 0.00 0.00 0.00 100
20260507095523 73 180 0.0 0.0 0.00 0.00 0.00 100
20260507095022 72 180 0.0 0.0 0.00 0.00 0.00 100
20260507094522 72 180 0.0 0.0 0.00 0.00 0.00 100
20260507094022 72 180 0.0 0.0 0.00 0.00 0.00 100
20260507093522 73 180 0.0 0.0 0.00 0.00 0.00 100
20260507093022 73 180 0.0 3.0 0.00 0.00 0.00 100
20260507092521 72 180 0.0 0.0 0.00 0.00 0.00 100
20260507092021 73 180 0.0 0.0 0.00 0.00 0.00 100
20260507091520 73 180 0.0 0.0 0.00 0.00 0.00 100
20260507091020 72 180 0.0 0.0 0.00 0.00 0.00 100
20260507090520 72 180 0.0 0.0 0.00 0.00 0.00 100
20260507090020 73 180 0.0 0.0 0.00 0.00 0.00 100
20260507085519 73 180 0.0 0.0 0.00 0.00 0.00 100
20260507085019 73 180 0.0 0.0 0.00 0.00 0.00 100
20260507084519 71 180 0.0 0.0 0.00 0.00 0.00 100
20260507084018 72 180 0.0 0.0 0.00 0.00 0.00 100
20260507083518 73 180 0.0 0.0 0.00 0.00 0.00 100
20260507083018 73 180 0.0 0.0 0.00 0.00 0.00 100
20260507082517 72 180 0.0 0.0 0.00 0.00 0.00 100
20260507082017 73 180 0.0 0.0 0.00 0.00 0.00 100
20260507081517 73 180 0.0 0.0 0.00 0.00 0.00 100
20260507081017 73 180 0.0 0.0 0.00 0.00 0.00 100
20260507080516 73 180 0.0 0.0 0.00 0.00 0.00 100
20260507080206 73 180 0.0 0.0 0.00 0.00 0.00 100
20260507080016 73 180 0.0 0.0 0.00 0.00 0.00 100
20260507075516 73 180 0.0 2.0 0.00 0.00 0.00 100
20260507075015 73 180 0.0 0.0 0.00 0.00 0.00 100
20260507074515 74 180 0.0 0.0 0.00 0.00 0.00 100
20260507074015 74 180 0.0 0.0 0.00 0.00 0.00 100
20260507073515 73 180 0.0 3.0 0.00 0.00 0.00 100
20260507073014 74 180 0.0 3.0 0.00 0.00 0.00 100
20260507072514 74 180 0.0 0.0 0.00 0.00 0.00 100
20260507072014 73 180 0.0 0.0 0.00 0.00 0.00 100
20260507071513 74 180 0.0 0.0 0.00 0.00 0.00 100
20260507071013 74 180 0.0 0.0 0.00 0.00 0.00 100
20260507070513 74 180 0.0 0.0 0.00 0.00 0.00 100
20260507070013 76 180 0.0 0.0 0.00 0.00 0.00 100
20260507065512 74 180 0.0 0.0 0.00 0.00 0.00 100
20260507065012 74 180 0.0 0.0 0.00 0.00 0.00 100
20260507064512 74 180 0.0 0.0 0.00 0.00 0.00 100
20260507064011 74 180 0.0 0.0 0.00 0.00 0.00 100
20260507063511 75 180 0.0 0.0 0.00 0.00 0.00 100
20260507063011 75 180 0.0 0.0 0.00 0.00 0.00 100
20260507062510 75 180 0.0 0.0 0.00 0.00 0.00 100
20260507062010 76 180 0.0 0.0 0.00 0.00 0.00 100
20260507061510 75 180 0.0 0.0 0.00 0.00 0.00 100
20260507061010 75 180 0.0 0.0 0.00 0.00 0.00 100
20260507060509 76 180 0.0 0.0 0.00 0.00 0.00 100
20260507060009 76 180 0.0 0.0 0.00 0.00 0.00 100
20260507055509 76 180 0.0 0.0 0.00 0.00 0.00 100
20260507055008 76 180 0.0 0.0 0.00 0.00 0.00 100
20260507054508 76 180 0.0 0.0 0.00 0.00 0.00 100
20260507054008 76 180 0.0 0.0 0.00 0.00 0.00 100
20260507053507 76 180 0.0 0.0 0.00 0.00 0.00 100
20260507053007 76 180 0.0 0.0 0.00 0.00 0.00 100
20260507052507 76 180 0.0 0.0 0.00 0.00 0.00 100
20260507052007 76 180 0.0 0.0 0.00 0.00 0.00 100
20260507051506 76 180 0.0 0.0 0.00 0.00 0.00 100
20260507051006 77 180 0.0 0.0 0.00 0.00 0.00 100
20260507050506 76 180 0.0 1.0 0.00 0.00 0.00 100
20260507050006 76 180 0.0 5.0 0.00 0.00 0.00 100
20260507045505 77 180 0.0 0.0 0.00 0.00 0.00 100
20260507045005 78 180 0.0 0.0 0.00 0.00 0.00 100
20260507044505 78 180 0.0 0.0 0.00 0.00 0.00 100
20260507044004 77 180 0.0 2.0 0.00 0.00 0.00 100
20260507043504 78 180 0.0 3.0 0.00 0.00 0.00 100
20260507043004 78 180 0.0 3.0 0.00 0.00 0.00 100
20260507042503 78 180 0.0 0.0 0.00 0.00 0.00 100
20260507042003 78 180 0.0 0.0 0.00 0.00 0.00 100
20260507041503 78 180 0.0 2.0 0.00 0.00 0.00 100
20260507041003 79 180 0.0 0.0 0.00 0.00 0.00 100
20260507040502 78 180 0.0 0.0 0.00 0.00 0.00 100
20260507040002 78 180 0.0 0.0 0.00 0.00 0.00 100
20260507035502 80 180 0.0 0.0 0.00 0.00 0.00 100
20260507035001 79 180 0.0 0.0 0.00 0.00 0.00 100
20260507034501 80 180 0.0 0.0 0.00 0.00 0.00 100
20260507034001 79 180 0.0 0.0 0.00 0.00 0.00 100
20260507033501 80 180 0.0 0.0 0.00 0.00 0.00 100
20260507033000 80 180 0.0 0.0 0.00 0.00 0.00 100
20260507032500 81 180 0.0 0.0 0.00 0.00 0.00 100
20260507032000 80 180 0.0 0.0 0.00 0.00 0.00 100
20260507031459 82 180 0.0 0.0 0.00 0.00 0.00 100
20260507030959 81 180 0.0 0.0 0.00 0.00 0.00 100
20260507030459 80 180 0.0 0.0 0.00 0.00 0.00 100
20260507025958 81 180 0.0 0.0 0.00 0.00 0.00 100
20260507025458 80 180 0.0 0.0 0.00 0.00 0.00 100
20260507024958 80 180 0.0 0.0 0.00 0.00 0.00 100
20260507024457 80 180 0.0 0.0 0.00 0.00 0.00 100
20260507023957 81 180 0.0 0.0 0.00 0.00 0.00 100
20260507023457 81 180 0.0 0.0 0.00 0.00 0.00 100
20260507022957 81 180 0.0 0.0 0.00 0.00 0.00 100
20260507022456 80 180 0.0 0.0 0.00 0.00 0.00 100
20260507021956 80 180 0.0 0.0 0.00 0.00 0.00 100
20260507021456 80 180 0.0 0.0 0.00 0.00 0.00 100
20260507020955 80 180 0.0 0.0 0.00 0.00 0.00 100
20260507020455 81 180 0.0 0.0 0.00 0.00 0.00 100
20260507015955 81 180 0.0 0.0 0.00 0.00 0.00 100
20260507015455 80 180 0.0 0.0 0.00 0.00 0.00 100
20260507014954 81 180 0.0 0.0 0.00 0.00 0.00 100
20260507014454 81 180 0.0 0.0 0.00 0.00 0.00 100
20260507013954 82 180 0.0 0.0 0.00 0.00 0.00 100
20260507013453 81 180 0.0 0.0 0.00 0.00 0.00 100
20260507012953 80 180 0.0 0.0 0.00 0.00 0.00 100
20260507012453 81 180 0.0 0.0 0.00 0.00 0.00 100
20260507011953 82 180 0.0 0.0 0.00 0.00 0.00 100
20260507011452 82 180 0.0 0.0 0.00 0.00 0.00 100
20260507010952 81 180 0.0 0.0 0.00 0.00 0.00 100
20260507010452 81 180 0.0 0.0 0.00 0.00 0.00 100
20260507005951 82 180 0.0 0.0 0.00 0.00 0.00 100
20260507005451 82 180 0.0 0.0 0.00 0.00 0.00 100
20260507004951 82 180 0.0 0.0 0.00 0.00 0.00 100
20260507004450 82 180 0.0 0.0 0.00 0.00 0.00 100
20260507003950 81 180 0.0 0.0 0.00 0.00 0.00 100
20260507003450 83 180 0.0 0.0 0.00 0.00 0.00 100
20260507002950 81 180 0.0 0.0 0.00 0.00 0.00 100
20260507002449 81 180 0.0 0.0 0.00 0.00 0.00 100
20260507001949 81 180 0.0 0.0 0.00 0.00 0.00 100
20260507001449 82 180 0.0 0.0 0.00 0.00 0.00 100
20260507000948 83 180 0.0 0.0 0.00 0.00 0.00 100
20260507000450 83 180 0.0 0.0 0.00 0.00 0.00 100
20260506235948 82 180 0.0 0.0 0.00 0.00 0.00 100
20260506235448 82 180 0.0 0.0 0.00 0.00 0.00 100
20260506234947 83 180 0.0 0.0 0.00 0.00 0.00 100
20260506234447 82 180 0.0 0.0 0.00 0.00 0.00 100
20260506233947 83 180 0.0 0.0 0.00 0.00 0.00 100
20260506233446 82 180 0.0 0.0 0.00 0.00 0.00 100
20260506232946 82 180 0.0 0.0 0.00 0.00 0.00 100
20260506232446 83 180 0.0 0.0 0.00 0.00 0.00 100
20260506231945 82 180 0.0 0.0 0.00 0.00 0.00 100
20260506231445 83 180 0.0 0.0 0.00 0.00 0.00 100
20260506230945 83 180 0.0 0.0 0.00 0.00 0.00 100
20260506230445 82 180 0.0 0.0 0.00 0.00 0.00 100
20260506225944 83 180 0.0 0.0 0.00 0.00 0.00 100
20260506225444 83 180 0.0 0.0 0.00 0.00 0.00 100
20260506224944 85 180 0.0 0.0 0.00 0.00 0.00 100
20260506224443 83 180 0.0 0.0 0.00 0.00 0.00 100
20260506223943 84 180 0.0 0.0 0.00 0.00 0.00 100
20260506223443 84 180 0.0 0.0 0.00 0.00 0.00 100
20260506222943 85 180 0.0 0.0 0.00 0.00 0.00 100
20260506222442 85 180 0.0 0.0 0.00 0.00 0.00 100
20260506221942 85 180 0.0 0.0 0.00 0.00 0.00 100
20260506221442 86 180 0.0 0.0 0.00 0.00 0.00 100
20260506220941 85 180 0.0 0.0 0.00 0.00 0.00 100
20260506220441 85 180 0.0 0.0 0.00 0.00 0.00 100
20260506215941 86 180 0.0 0.0 0.00 0.00 0.00 100
20260506215440 86 180 0.0 0.0 0.00 0.00 0.00 100
20260506214940 87 180 0.0 0.0 0.00 0.00 0.00 100
20260506214440 85 180 0.0 0.0 0.00 0.00 0.00 100
20260506213940 87 180 0.0 0.0 0.00 0.00 0.00 100
20260506213439 87 180 0.0 0.0 0.00 0.00 0.00 100
20260506212939 86 180 0.0 0.0 0.00 0.00 0.00 100
20260506212439 85 180 0.0 0.0 0.00 0.00 0.00 100
20260506211938 88 180 0.0 0.0 0.00 0.00 0.00 100
20260506211438 88 180 0.0 0.0 0.00 0.00 0.00 100
20260506210938 88 180 0.0 0.0 0.00 0.00 0.00 100
20260506210438 87 180 0.0 0.0 0.00 0.00 0.00 100
20260506205937 88 180 0.0 0.0 0.00 0.00 0.00 100
20260506205437 87 180 0.0 0.0 0.00 0.00 0.00 100
20260506204937 90 180 0.0 0.0 0.00 0.00 0.00 100
20260506204436 89 180 0.0 0.0 0.00 0.00 0.00 100
20260506203936 89 180 0.0 0.0 0.00 0.00 0.00 100
20260506203436 89 180 0.0 0.0 0.00 0.00 0.00 100
20260506202935 89 180 0.0 0.0 0.00 0.00 0.00 100
20260506202435 86 180 0.0 6.0 0.00 0.00 0.00 100
20260506201935 88 180 0.0 0.0 0.00 0.00 0.00 100
20260506201435 89 180 0.0 0.0 0.00 0.00 0.00 100
20260506200934 87 180 0.0 5.0 0.00 0.00 0.00 100
20260506200434 87 180 4.0 4.0 0.00 0.00 0.00 100
20260506195934 90 180 0.0 2.0 0.00 0.00 0.00 100
20260506195433 94 180 0.0 5.0 0.00 0.00 0.00 100
20260506194933 95 180 0.0 0.0 0.00 0.00 0.00 100
20260506194433 97 180 0.0 6.0 0.00 0.00 0.00 100
20260506193933 95 180 4.0 5.0 0.00 0.00 0.00 100
20260506193432 92 180 0.0 0.0 0.00 0.00 0.00 100
20260506192932 96 180 0.0 0.0 0.00 0.00 0.00 100
20260506192432 96 180 0.0 0.0 0.00 0.00 0.00 100
20260506191931 94 180 0.0 7.0 0.00 0.00 0.00 100
20260506191431 94 180 5.0 7.0 0.00 0.00 0.00 100
20260506190931 96 180 6.0 6.0 0.00 0.00 0.00 100
20260506190431 93 180 4.0 6.0 0.00 0.00 0.00 100
20260506185930 96 180 2.0 6.0 0.00 0.00 0.00 100
20260506185430 92 180 4.0 7.0 0.00 0.00 0.00 100
20260506184930 92 180 2.0 8.0 0.00 0.00 0.00 100
20260506184429 98 180 7.0 7.0 0.00 0.00 0.00 100
20260506183929 96 180 0.0 8.0 0.00 0.00 0.00 100
20260506183429 93 180 0.0 9.0 0.00 0.00 0.00 100
20260506182928 92 180 6.0 10.0 0.00 0.00 0.00 100
20260506182428 96 180 6.0 8.0 0.00 0.00 0.00 100
20260506181928 98 180 5.0 7.0 0.00 0.00 0.00 100
20260506181428 99 180 2.0 7.0 0.00 0.00 0.00 100
20260506180927 98 180 0.0 6.0 0.00 0.00 0.00 100
20260506180427 100 180 5.0 8.0 0.00 0.00 0.00 100
20260506175927 98 180 0.0 5.0 0.00 0.00 0.00 100
20260506175426 95 180 3.0 6.0 0.00 0.00 0.00 100